Regional Weather Roundup
Issued by NWS

Home | Current Version | Previous Version | Graphics & Text | Print | Product List | Glossary On
Versions: 1 2 3 4 5 6 7 8 9 10 11 12 13 14 15 16 17 18 19 20 21 22 23 24 25 26 27 28 29 30 31 32 33 34 35 36 37 38 39 40 41 42 43 44 45 46 47 48 49 50
000
ASUS45 KBOU 182007
RWRCO

WEATHER ROUNDUP FOR COLORADO
NATIONAL WEATHER SERVICE DENVER/BOULDER CO
100 PM MST THU DEC 18 2014

NOTE: "FAIR" INDICATES FEW OR NO CLOUDS BELOW 12000 FEET WITH NO
SIGNIFICANT WEATHER AND/OR OBSTRUCTIONS TO VISIBILITY.

COZ001>005-013-030-031-182100-
...NORTHWEST COLORADO...

CITY           SKY/WX    TMP DP  RH WIND       PRES   REMARKS
CRAIG          CLOUDY    27  24  89 CALM      30.13F
HAYDEN         PTSUNNY   27  21  80 S3        30.11F
MEEKER         CLOUDY    29  24  82 CALM      30.11F
MOUNT WERNER   NOT AVBL
STEAMBOAT SPGS CLOUDY    29  23  77 CALM      30.10F
WALDEN         MOSUNNY   12   9  85 CALM      30.06F
$$

COZ006>008-011-182100-
...WEST CENTRAL VALLEYS...

CITY           SKY/WX    TMP DP  RH WIND       PRES   REMARKS
GRAND JUNCTION CLOUDY    37  32  82 W3        30.13F
MONTROSE       CLOUDY    37  30  75 N3        30.12F
EAGLE          NOT AVBL
RIFLE          PTSUNNY   39  31  72 W7        30.10F
DELTA          CLOUDY    42  35  73 SW12G17   30.11F
NUCLA          CLOUDY    36  32  87 CALM      30.15F
$$

COZ017>023-064>068-182100-
...SOUTHWEST COLORADO...

CITY           SKY/WX    TMP DP  RH WIND       PRES   REMARKS
DURANGO        CLOUDY    34  25  69 SW6       30.10F WCI  29
CORTEZ         LGT SNOW  33  30  88 CALM      30.12F FOG
PAGOSA SPRINGS CLOUDY    33  24  71 SW5       30.09F WCI  28
TELLURIDE      FLURRIES N/A N/A N/A W8        30.08F
WOLF CREEK PAS SNOW      14  12  92 MISG      30.04F VSB 1/2
$$

COZ009-010-012-014-032>034-037-058>063-182100-
...CENTRAL COLORADO...

CITY           SKY/WX    TMP DP  RH WIND       PRES   REMARKS
ASPEN          PTSUNNY   31  23  72 N6        30.05F WCI  25
BUENA VISTA    SUNNY     37  15  41 E7        30.00F
COPPER MTN     SNOW      19  14  79 W15       30.02F VSB 1/4 WCI   5
BERTHOUD PASS  CLOUDY    12   5  73 MISG      30.02F
COTTONWOOD PAS PTSUNNY   32   9  37 SW6G18    30.02F WCI  26
GUNNISON       PTSUNNY   28  19  69 NE5       30.10F WCI  23
KREMMLING      CLOUDY    28  19  69 CALM      30.10F
LEADVILLE      PTSUNNY   27  10  49 NW12      30.01F WCI  17
MONARCH PASS   CLOUDY    14  12  92 MISG      30.12F
SALIDA         SUNNY     40  17  39 S15       30.09F
SUNLIGHT       LGT SNOW N/A N/A N/A CALM      30.07F
WILKERSON PASS SUNNY     27  14  59 SW6       30.03F WCI  20
$$

COZ069>075-182100-
...SAN LUIS VALLEY/SANGRE DE CRISTO MOUNTAINS...

CITY           SKY/WX    TMP DP  RH WIND       PRES   REMARKS
ALAMOSA        CLOUDY    31  22  69 VRB3      30.07F
LA VETA PASS   CLOUDY    21  18  86 SW7       30.01F FOG     WCI  13
SAGUACHE       CLOUDY    32  23  69 SE5       30.06F WCI  27
$$

COZ035-036-038>040-182100-
...NORTHERN COLORADO FRONT RANGE...

CITY           SKY/WX    TMP DP  RH WIND       PRES   REMARKS
DENVER INTL AP PTSUNNY   41  28  60 E5        30.00F
DMNS CITY PARK   N/A     44  25  48 NE1G8     29.99F
AURORA         PTSUNNY   41  25  54 CALM      30.00F
FRONT RANGE AP NOT AVBL
ERIE MUNI ARPT   N/A     42  25  49 NE3       30.00F
BOULDER MUN AP MOSUNNY   41  23  48 CALM      30.00F
CENTENNIAL     MOSUNNY   40  25  55 E3        29.99F
BROOMFIELD     PTSUNNY   39  25  56 CALM      30.01
FORT COLLINS   MOSUNNY   43  25  49 NE5       30.03F
LONGMONT       MOSUNNY   48  23  37 CALM      30.02F
$$

COZ041-046-047-076>085-087-088-182100-
...PIKES PEAK/PALMER DIVIDE AND SOUTHERN FOOTHILLS...

CITY           SKY/WX    TMP DP  RH WIND       PRES   REMARKS
COLO. SPRINGS  MOSUNNY   40  25  55 SE8       30.01F
A. F. ACADEMY  MOSUNNY   41  27  57 S8        29.99F
ELLICOTT       NOT AVBL
FALCON         NOT AVBL
FORT CARSON    SUNNY     42  30  63 S6        29.99F
LIMON          SUNNY     43  23  45 S10       30.01F
MONUMENT HILL  SUNNY     37  28  70 SE6       29.98F
TRINIDAD       SUNNY     44  25  47 E10       30.00F
$$

COZ042>045-048>051-090-091-182100-
...NORTHEAST COLORADO...

CITY           SKY/WX    TMP DP  RH WIND       PRES   REMARKS
GREELEY ARPT   SUNNY     39  21  48 CALM      30.01F
AKRON          PTSUNNY   31  27  85 W8        30.02F WCI  23
BURLINGTON     SUNNY     39  28  64 W6        30.04F
WRAY           MOSUNNY   28  24  87 CALM      30.05F
STERLING       PTSUNNY   32  27  80 S6        30.04F WCI  26
HOLYOKE        NOT AVBL
FORT MORGAN    PTSUNNY   32  23  68 NW5       30.03F WCI  27
$$

COZ086-089-092>099-182100-
...SOUTHEAST COLORADO...

CITY           SKY/WX    TMP DP  RH WIND       PRES   REMARKS
PUEBLO         SUNNY     44  30  57 SE6       30.00
LA JUNTA       SUNNY     43  31  62 VRB3      30.04F
LAMAR          SUNNY     42  29  59 CALM      30.05F
SPRINGFIELD      N/A     42  30  62 E5        30.03F
$$


USA.gov is the U.S. government's official web portal to all federal, state and local government web resources and services.